Location: Huberhof
(49.2050°N, 7.4980°E)
Time: 00:17:17
(UTC+00:00)

Okean O Rocket - Pass Details

Date: 29 October 2020
Orbit: 623 x 644 km, 98.2° (Epoch: 26 November)

Event Time Altitude Azimuth Distance (km) Brightness Sun altitude
Rises 17:22:20 0° 184° (S) 2,907 5.2 -11.8°
Reaches altitude 10° 17:24:38 10° 192° (SSW) 2,001 4.4 -12.2°
Maximum altitude 17:28:43 39° 262° (W) 939 3.2 -12.8°
Drops below altitude 10° 17:32:50 10° 332° (NNW) 2,008 4.5 -13.5°
Sets 17:35:09 0° 340° (NNW) 2,918 5.2 -13.9°
